Time,TemperatureF,DewpointF,PressureIn,WindDirection,WindDirectionDegrees,WindSpeedMPH,WindSpeedGustMPH,Humidity,HourlyPrecipIn,Conditions,Clouds,dailyrainin,SoftwareType,DateUTC
2013-06-20 00:02:00,80.4,77.2,29.97,SE,145,5.8,5.8,90,0.00,CLR,,0.00,WeatherDisplay:10.37,2013-06-20 05:02:00,
2013-06-20 00:07:00,80.4,77.2,29.97,SE,142,8.1,8.1,90,0.00,CLR,,0.00,WeatherDisplay:10.37,2013-06-20 05:07:00,
2013-06-20 00:12:00,80.4,77.2,29.97,SE,131,12.7,12.7,90,0.00,CLR,,0.00,WeatherDisplay:10.37,2013-06-20 05:12:00,
2013-06-20 00:17:00,80.4,77.2,29.96,South,185,10.4,10.4,90,0.00,CLR,,0.00,WeatherDisplay:10.37,2013-06-20 05:17:00,
2013-06-20 00:22:00,80.4,77.5,29.96,South,176,5.8,5.8,91,0.00,CLR,,0.00,WeatherDisplay:10.37,2013-06-20 05:22:00,
2013-06-20 00:27:00,80.3,77.1,29.96,SE,126,11.5,11.5,90,0.00,CLR,,0.00,WeatherDisplay:10.37,2013-06-20 05:27:00,
2013-06-20 00:32:00,80.4,77.2,29.96,SSE,147,5.8,5.8,90,0.00,CLR,,0.00,WeatherDisplay:10.37,2013-06-20 05:32:00,
2013-06-20 00:37:00,80.4,77.2,29.96,ESE,116,5.8,5.8,90,0.00,CLR,,0.00,WeatherDisplay:10.37,2013-06-20 05:37:00,
2013-06-20 00:42:00,80.4,77.2,29.96,SE,142,5.8,5.8,90,0.00,CLR,,0.00,WeatherDisplay:10.37,2013-06-20 05:42:00,
2013-06-20 00:47:00,80.3,77.1,29.96,South,169,5.8,5.8,90,0.00,CLR,,0.00,WeatherDisplay:10.37,2013-06-20 05:47:00,
2013-06-20 00:52:00,80.3,77.1,29.96,SSE,152,6.9,6.9,90,0.00,CLR,,0.00,WeatherDisplay:10.37,2013-06-20 05:52:00,
2013-06-20 00:57:00,80.3,77.1,29.96,South,186,10.4,10.4,90,0.00,CLR,,0.00,WeatherDisplay:10.37,2013-06-20 05:57:00,
2013-06-20 01:02:00,80.2,77.3,29.96,SSE,158,6.9,6.9,91,0.00,CLR,,0.00,WeatherDisplay:10.37,2013-06-20 06:02:00,
2013-06-20 01:07:00,80.2,77.3,29.96,South,176,5.8,5.8,91,0.00,CLR,,0.00,WeatherDisplay:10.37,2013-06-20 06:07:00,
2013-06-20 01:12:00,80.2,77.3,29.96,SSE,150,5.8,5.8,91,0.00,CLR,,0.00,WeatherDisplay:10.37,2013-06-20 06:12:00,
2013-06-20 01:17:00,80.1,77.2,29.96,South,188,4.6,4.6,91,0.00,CLR,,0.00,WeatherDisplay:10.37,2013-06-20 06:17:00,
2013-06-20 01:22:00,80.1,77.2,29.96,SSE,160,5.8,5.8,91,0.00,CLR,,0.00,WeatherDisplay:10.37,2013-06-20 06:22:00,
2013-06-20 01:27:00,80.1,77.2,29.96,South,169,4.6,4.6,91,0.00,CLR,,0.00,WeatherDisplay:10.37,2013-06-20 06:27:00,
2013-06-20 01:32:00,80.0,77.5,29.96,SSE,167,5.8,5.8,92,0.00,CLR,,0.00,WeatherDisplay:10.37,2013-06-20 06:32:00,
2013-06-20 01:37:00,80.0,77.5,29.96,SSE,163,5.8,5.8,92,0.00,CLR,,0.00,WeatherDisplay:10.37,2013-06-20 06:37:00,
2013-06-20 01:42:00,80.0,77.5,29.95,SSW,210,5.8,5.8,92,0.00,CLR,,0.00,WeatherDisplay:10.37,2013-06-20 06:42:00,
2013-06-20 01:47:00,79.9,77.4,29.95,ESE,113,3.5,3.5,92,0.00,CLR,,0.00,WeatherDisplay:10.37,2013-06-20 06:47:00,
2013-06-20 01:52:00,79.9,77.4,29.95,SSE,166,8.4,8.4,92,0.00,CLR,,0.00,WeatherDisplay:10.37,2013-06-20 06:52:00,
2013-06-20 01:57:00,79.9,77.4,29.95,SSE,153,6.9,6.9,92,0.00,CLR,,0.00,WeatherDisplay:10.37,2013-06-20 06:57:00,
2013-06-20 02:02:00,79.9,77.4,29.95,SSE,162,5.8,5.8,92,0.00,CLR,,0.00,WeatherDisplay:10.37,2013-06-20 07:02:00,
2013-06-20 02:07:00,79.9,77.4,29.94,SSE,149,11.5,11.5,92,0.00,CLR,,0.00,WeatherDisplay:10.37,2013-06-20 07:07:00,
2013-06-20 02:12:00,80.0,77.5,29.95,South,175,5.8,5.8,92,0.00,CLR,,0.00,WeatherDisplay:10.37,2013-06-20 07:12:00,
2013-06-20 02:17:00,80.0,77.5,29.94,SE,131,10.4,10.4,92,0.00,CLR,,0.00,WeatherDisplay:10.37,2013-06-20 07:17:00,
2013-06-20 02:22:00,80.0,77.5,29.94,SSW,196,12.7,12.7,92,0.00,CLR,,0.00,WeatherDisplay:10.37,2013-06-20 07:22:00,
2013-06-20 02:27:00,80.0,77.5,29.94,SSE,159,9.2,9.2,92,0.00,CLR,,0.00,WeatherDisplay:10.37,2013-06-20 07:27:00,
2013-06-20 02:32:00,79.9,77.4,29.94,South,170,5.8,5.8,92,0.00,CLR,,0.00,WeatherDisplay:10.37,2013-06-20 07:32:00,
2013-06-20 02:37:00,79.9,77.4,29.94,South,175,5.8,5.8,92,0.00,CLR,,0.00,WeatherDisplay:10.37,2013-06-20 07:37:00,
2013-06-20 02:42:00,79.9,77.4,29.94,SSW,201,5.8,5.8,92,0.00,CLR,,0.00,WeatherDisplay:10.37,2013-06-20 07:42:00,
2013-06-20 02:47:00,79.9,77.4,29.94,SSE,161,4.6,4.6,92,0.00,CLR,,0.00,WeatherDisplay:10.37,2013-06-20 07:47:00,
2013-06-20 02:52:00,79.9,77.7,29.94,SSE,149,5.8,5.8,93,0.00,CLR,,0.00,WeatherDisplay:10.37,2013-06-20 07:52:00,
2013-06-20 02:57:00,79.9,77.7,29.94,South,169,5.8,5.8,93,0.00,CLR,,0.00,WeatherDisplay:10.37,2013-06-20 07:57:00,
2013-06-20 03:02:00,79.9,77.7,29.94,East,99,8.1,8.1,93,0.00,CLR,,0.00,WeatherDisplay:10.37,2013-06-20 08:02:00,
2013-06-20 03:07:00,79.8,77.6,29.94,SW,218,11.5,11.5,93,0.00,CLR,,0.00,WeatherDisplay:10.37,2013-06-20 08:07:00,
2013-06-20 03:12:00,79.9,77.7,29.94,SSE,153,3.5,3.5,93,0.00,CLR,,0.00,WeatherDisplay:10.37,2013-06-20 08:12:00,
2013-06-20 03:17:00,79.9,77.7,29.94,SSE,154,5.8,5.8,93,0.00,CLR,,0.00,WeatherDisplay:10.37,2013-06-20 08:17:00,
2013-06-20 03:22:00,79.8,77.6,29.94,SE,140,4.6,4.6,93,0.00,CLR,,0.00,WeatherDisplay:10.37,2013-06-20 08:22:00,
2013-06-20 03:27:00,79.7,77.5,29.94,SSE,149,4.6,4.6,93,0.00,CLR,,0.00,WeatherDisplay:10.37,2013-06-20 08:27:00,
2013-06-20 03:32:00,79.6,77.4,29.93,SSE,156,5.8,5.8,93,0.00,CLR,,0.00,WeatherDisplay:10.37,2013-06-20 08:32:00,
2013-06-20 03:37:00,79.6,77.4,29.93,SE,133,5.8,5.8,93,0.00,CLR,,0.00,WeatherDisplay:10.37,2013-06-20 08:37:00,
2013-06-20 03:42:00,79.6,77.4,29.93,SSE,167,3.5,3.5,93,0.00,CLR,,0.00,WeatherDisplay:10.37,2013-06-20 08:42:00,
2013-06-20 03:47:00,79.6,77.4,29.93,South,185,6.3,6.3,93,0.00,CLR,,0.00,WeatherDisplay:10.37,2013-06-20 08:47:00,
2013-06-20 03:52:00,79.6,77.4,29.94,SE,138,5.8,5.8,93,0.00,CLR,,0.00,WeatherDisplay:10.37,2013-06-20 08:52:00,
2013-06-20 03:57:00,79.6,77.4,29.94,SSE,168,3.5,3.5,93,0.00,CLR,,0.00,WeatherDisplay:10.37,2013-06-20 08:57:00,
2013-06-20 04:02:00,79.6,77.4,29.94,SE,138,3.5,3.5,93,0.00,CLR,,0.00,WeatherDisplay:10.37,2013-06-20 09:02:00,
2013-06-20 04:07:00,79.6,77.4,29.94,SSE,154,5.8,5.8,93,0.00,CLR,,0.00,WeatherDisplay:10.37,2013-06-20 09:07:00,
2013-06-20 04:12:00,79.6,77.4,29.93,SE,131,4.6,4.6,93,0.00,CLR,,0.00,WeatherDisplay:10.37,2013-06-20 09:12:00,
2013-06-20 04:17:00,79.5,77.3,29.93,SSE,163,5.8,5.8,93,0.00,CLR,,0.00,WeatherDisplay:10.37,2013-06-20 09:17:00,
2013-06-20 04:22:00,79.5,77.3,29.93,ESE,111,9.2,9.2,93,0.00,CLR,,0.00,WeatherDisplay:10.37,2013-06-20 09:22:00,
2013-06-20 04:27:00,79.5,77.3,29.93,ESE,115,5.8,5.8,93,0.00,CLR,,0.00,WeatherDisplay:10.37,2013-06-20 09:27:00,
2013-06-20 04:32:00,79.5,77.3,29.93,SSE,150,5.8,5.8,93,0.00,CLR,,0.00,WeatherDisplay:10.37,2013-06-20 09:32:00,
2013-06-20 04:37:00,79.5,77.3,29.93,SE,136,4.6,4.6,93,0.00,CLR,,0.00,WeatherDisplay:10.37,2013-06-20 09:37:00,
2013-06-20 04:42:00,79.5,77.3,29.93,SSE,151,6.9,6.9,93,0.00,CLR,,0.00,WeatherDisplay:10.37,2013-06-20 09:42:00,
2013-06-20 04:47:00,79.5,77.3,29.93,SSE,148,6.9,6.9,93,0.00,CLR,,0.00,WeatherDisplay:10.37,2013-06-20 09:47:00,
2013-06-20 04:52:00,79.5,77.3,29.93,SE,141,11.5,11.5,93,0.00,CLR,,0.00,WeatherDisplay:10.37,2013-06-20 09:52:00,
2013-06-20 04:57:00,79.5,77.3,29.92,SSE,163,9.2,9.2,93,0.00,CLR,,0.00,WeatherDisplay:10.37,2013-06-20 09:57:00,
2013-06-20 05:02:00,79.5,77.3,29.93,SSE,149,11.5,11.5,93,0.00,CLR,,0.00,WeatherDisplay:10.37,2013-06-20 10:02:00,
2013-06-20 05:07:00,79.5,77.3,29.92,SSE,167,9.2,9.2,93,0.00,CLR,,0.00,WeatherDisplay:10.37,2013-06-20 10:07:00,
2013-06-20 05:12:00,79.5,77.3,29.93,SSE,155,5.8,5.8,93,0.00,CLR,,0.00,WeatherDisplay:10.37,2013-06-20 10:12:00,
2013-06-20 05:17:00,79.5,77.3,29.93,SSE,162,4.6,4.6,93,0.00,CLR,,0.00,WeatherDisplay:10.37,2013-06-20 10:17:00,
2013-06-20 05:22:00,79.5,77.3,29.92,SE,146,5.8,5.8,93,0.00,CLR,,0.00,WeatherDisplay:10.37,2013-06-20 10:22:00,
2013-06-20 05:27:00,79.5,77.6,29.92,SSE,148,6.9,6.9,94,0.00,CLR,,0.00,WeatherDisplay:10.37,2013-06-20 10:27:00,
2013-06-20 05:32:00,79.5,77.6,29.92,SSE,152,6.3,6.3,94,0.00,CLR,,0.00,WeatherDisplay:10.37,2013-06-20 10:32:00,
2013-06-20 05:37:00,79.5,77.6,29.92,SSE,148,3.5,3.5,94,0.00,CLR,,0.00,WeatherDisplay:10.37,2013-06-20 10:37:00,
2013-06-20 05:42:00,79.4,77.5,29.93,SE,137,4.6,4.6,94,0.00,CLR,,0.00,WeatherDisplay:10.37,2013-06-20 10:42:00,
2013-06-20 05:47:00,79.4,77.5,29.93,South,174,5.8,5.8,94,0.00,CLR,,0.00,WeatherDisplay:10.37,2013-06-20 10:47:00,
2013-06-20 05:52:00,79.4,77.5,29.93,SE,142,5.8,5.8,94,0.00,CLR,,0.00,WeatherDisplay:10.37,2013-06-20 10:52:00,
2013-06-20 05:57:00,79.5,77.6,29.93,SSE,149,6.9,6.9,94,0.00,CLR,,0.00,WeatherDisplay:10.37,2013-06-20 10:57:00,
2013-06-20 06:02:00,79.5,77.6,29.93,SE,144,5.8,5.8,94,0.00,CLR,,0.00,WeatherDisplay:10.37,2013-06-20 11:02:00,
2013-06-20 06:07:00,79.4,77.5,29.93,SE,145,5.8,5.8,94,0.00,CLR,,0.00,WeatherDisplay:10.37,2013-06-20 11:07:00,
2013-06-20 06:12:00,79.3,77.4,29.94,South,169,5.8,5.8,94,0.00,CLR,,0.00,WeatherDisplay:10.37,2013-06-20 11:12:00,
2013-06-20 06:17:00,79.3,77.4,29.94,SSE,158,2.3,2.3,94,0.00,CLR,,0.00,WeatherDisplay:10.37,2013-06-20 11:17:00,
2013-06-20 06:22:00,79.3,77.4,29.94,SSE,155,2.3,2.6,94,0.00,CLR,,0.00,WeatherDisplay:10.37,2013-06-20 11:22:00,
2013-06-20 06:27:00,79.3,77.1,29.94,SSE,164,3.5,3.5,93,0.00,CLR,,0.00,WeatherDisplay:10.37,2013-06-20 11:27:00,
2013-06-20 06:32:00,79.4,77.2,29.94,South,181,5.8,5.8,93,0.00,CLR,,0.00,WeatherDisplay:10.37,2013-06-20 11:32:00,
2013-06-20 06:37:00,79.5,77.3,29.94,SSE,162,5.8,5.8,93,0.00,CLR,,0.00,WeatherDisplay:10.37,2013-06-20 11:37:00,
2013-06-20 06:42:00,79.5,77.3,29.94,SE,141,3.5,3.5,93,0.00,CLR,,0.00,WeatherDisplay:10.37,2013-06-20 11:42:00,
2013-06-20 06:47:00,79.5,77.3,29.94,SSE,157,4.6,4.6,93,0.00,CLR,,0.00,WeatherDisplay:10.37,2013-06-20 11:47:00,
2013-06-20 06:52:00,79.5,77.3,29.95,SSE,157,2.3,2.3,93,0.00,CLR,,0.00,WeatherDisplay:10.37,2013-06-20 11:52:00,
2013-06-20 06:57:00,79.5,77.3,29.96,SE,142,3.5,3.5,93,0.00,CLR,,0.00,WeatherDisplay:10.37,2013-06-20 11:57:00,
2013-06-20 07:02:00,79.5,77.3,29.96,ESE,116,6.9,6.9,93,0.00,CLR,,0.00,WeatherDisplay:10.37,2013-06-20 12:02:00,
2013-06-20 07:07:00,79.6,77.4,29.96,SSE,150,5.8,5.8,93,0.00,CLR,,0.00,WeatherDisplay:10.37,2013-06-20 12:07:00,
2013-06-20 07:12:00,79.7,77.5,29.96,SSE,165,4.6,4.6,93,0.00,CLR,,0.00,WeatherDisplay:10.37,2013-06-20 12:12:00,
2013-06-20 07:17:00,79.8,77.6,29.96,ESE,119,5.8,5.8,93,0.00,CLR,,0.00,WeatherDisplay:10.37,2013-06-20 12:17:00,
2013-06-20 07:22:00,80.0,77.8,29.96,SE,139,4.6,4.6,93,0.00,CLR,,0.00,WeatherDisplay:10.37,2013-06-20 12:22:00,
2013-06-20 07:27:00,80.2,78.0,29.97,SE,141,3.5,3.5,93,0.00,CLR,,0.00,WeatherDisplay:10.37,2013-06-20 12:27:00,
2013-06-20 07:32:00,80.3,78.1,29.97,SSE,153,5.8,5.8,93,0.00,CLR,,0.00,WeatherDisplay:10.37,2013-06-20 12:32:00,
2013-06-20 07:37:00,80.5,78.0,29.97,SE,139,5.8,5.8,92,0.00,CLR,,0.00,WeatherDisplay:10.37,2013-06-20 12:37:00,
2013-06-20 07:42:00,80.8,77.9,29.97,SSE,155,4.6,4.6,91,0.00,CLR,,0.00,WeatherDisplay:10.37,2013-06-20 12:42:00,
2013-06-20 07:47:00,81.1,78.2,29.97,SSE,148,6.9,6.9,91,0.00,CLR,,0.00,WeatherDisplay:10.37,2013-06-20 12:47:00,
2013-06-20 07:52:00,81.4,78.2,29.97,ESE,122,9.2,9.2,90,0.00,CLR,,0.00,WeatherDisplay:10.37,2013-06-20 12:52:00,
2013-06-20 07:57:00,81.6,78.4,29.97,SSE,158,5.8,5.8,90,0.00,CLR,,0.00,WeatherDisplay:10.37,2013-06-20 12:57:00,
2013-06-20 08:02:00,81.9,78.3,29.97,SSE,153,5.8,5.8,89,0.00,CLR,,0.00,WeatherDisplay:10.37,2013-06-20 13:02:00,
2013-06-20 08:07:00,82.1,78.2,29.98,SSE,158,6.9,6.9,88,0.00,CLR,,0.00,WeatherDisplay:10.37,2013-06-20 13:07:00,
2013-06-20 08:12:00,82.3,78.4,29.98,SSE,153,4.6,5.6,88,0.00,CLR,,0.00,WeatherDisplay:10.37,2013-06-20 13:12:00,
2013-06-20 08:17:00,82.5,78.6,29.98,SSE,159,5.8,5.8,88,0.00,CLR,,0.00,WeatherDisplay:10.37,2013-06-20 13:17:00,
2013-06-20 08:22:00,82.8,78.5,29.99,East,86,7.4,7.4,87,0.00,CLR,,0.00,WeatherDisplay:10.37,2013-06-20 13:22:00,
2013-06-20 08:27:00,82.9,78.6,29.99,SE,134,10.4,10.4,87,0.00,CLR,,0.00,WeatherDisplay:10.37,2013-06-20 13:27:00,
2013-06-20 08:32:00,83.1,78.5,29.99,SE,134,10.4,10.4,86,0.00,CLR,,0.00,WeatherDisplay:10.37,2013-06-20 13:32:00,
2013-06-20 08:37:00,83.2,78.6,29.99,SE,128,11.5,11.5,86,0.00,CLR,,0.00,WeatherDisplay:10.37,2013-06-20 13:37:00,
2013-06-20 08:42:00,83.3,78.7,29.99,SE,139,9.2,9.2,86,0.00,CLR,,0.00,WeatherDisplay:10.37,2013-06-20 13:42:00,
2013-06-20 08:47:00,83.5,78.9,29.99,ESE,114,9.2,9.2,86,0.00,CLR,,0.00,WeatherDisplay:10.37,2013-06-20 13:47:00,
2013-06-20 08:52:00,83.8,78.8,29.99,SE,131,10.4,10.4,85,0.00,CLR,,0.00,WeatherDisplay:10.37,2013-06-20 13:52:00,
2013-06-20 08:57:00,83.7,78.7,29.99,SE,131,13.8,13.8,85,0.00,CLR,,0.00,WeatherDisplay:10.37,2013-06-20 13:57:00,
2013-06-20 09:02:00,83.6,78.6,29.99,SE,124,13.8,13.8,85,0.00,CLR,,0.00,WeatherDisplay:10.37,2013-06-20 14:02:00,
2013-06-20 09:07:00,83.6,78.6,30.00,SE,136,9.2,10.2,85,0.00,CLR,,0.00,WeatherDisplay:10.37,2013-06-20 14:07:00,
2013-06-20 09:12:00,83.8,78.8,30.00,SSE,149,11.5,11.5,85,0.00,CLR,,0.00,WeatherDisplay:10.37,2013-06-20 14:12:00,
2013-06-20 09:17:00,83.9,78.9,30.00,SE,129,12.7,12.7,85,0.00,CLR,,0.00,WeatherDisplay:10.37,2013-06-20 14:17:00,
2013-06-20 09:22:00,84.0,79.0,30.00,SE,134,10.4,10.4,85,0.00,CLR,,0.00,WeatherDisplay:10.37,2013-06-20 14:22:00,
2013-06-20 09:27:00,84.1,78.7,30.00,SSE,155,13.8,13.8,84,0.00,CLR,,0.00,WeatherDisplay:10.37,2013-06-20 14:27:00,
2013-06-20 09:32:00,84.4,78.7,30.00,SSE,147,13.8,13.8,83,0.00,CLR,,0.00,WeatherDisplay:10.37,2013-06-20 14:32:00,
2013-06-20 09:37:00,84.3,78.2,30.00,SE,129,17.3,17.3,82,0.00,CLR,,0.00,WeatherDisplay:10.37,2013-06-20 14:37:00,
2013-06-20 09:42:00,84.5,78.8,30.00,SSE,155,15.0,15.0,83,0.00,CLR,,0.00,WeatherDisplay:10.37,2013-06-20 14:42:00,
2013-06-20 09:47:00,84.9,78.8,30.01,ESE,113,15.0,15.0,82,0.00,CLR,,0.00,WeatherDisplay:10.37,2013-06-20 14:47:00,
2013-06-20 09:52:00,84.8,79.1,30.01,SSE,150,9.2,9.2,83,0.00,CLR,,0.00,WeatherDisplay:10.37,2013-06-20 14:52:00,
2013-06-20 09:57:00,85.0,78.5,30.01,SSE,162,15.0,15.0,81,0.00,CLR,,0.00,WeatherDisplay:10.37,2013-06-20 14:57:00,
2013-06-20 10:02:00,85.0,78.9,30.01,SSE,153,12.7,12.7,82,0.00,CLR,,0.00,WeatherDisplay:10.37,2013-06-20 15:02:00,
2013-06-20 10:07:00,85.0,78.1,30.01,South,172,15.0,15.0,80,0.00,CLR,,0.00,WeatherDisplay:10.37,2013-06-20 15:07:00,
2013-06-20 10:12:00,85.2,78.3,30.01,East,81,12.7,12.7,80,0.00,CLR,,0.00,WeatherDisplay:10.37,2013-06-20 15:12:00,
2013-06-20 10:17:00,85.6,78.3,30.02,SSE,157,16.1,16.1,79,0.00,CLR,,0.00,WeatherDisplay:10.37,2013-06-20 15:17:00,
2013-06-20 10:22:00,85.6,78.7,30.02,SE,136,13.8,13.8,80,0.00,CLR,,0.00,WeatherDisplay:10.37,2013-06-20 15:22:00,
2013-06-20 10:27:00,85.3,78.4,30.02,ESE,121,12.7,12.7,80,0.00,CLR,,0.00,WeatherDisplay:10.37,2013-06-20 15:27:00,
2013-06-20 10:32:00,85.5,78.2,30.02,SE,143,13.8,13.8,79,0.00,CLR,,0.00,WeatherDisplay:10.37,2013-06-20 15:32:00,
2013-06-20 10:37:00,85.5,78.6,30.02,SSE,148,10.4,10.4,80,0.00,CLR,,0.00,WeatherDisplay:10.37,2013-06-20 15:37:00,
2013-06-20 10:42:00,86.3,79.0,30.02,SE,125,11.5,11.5,79,0.00,CLR,,0.00,WeatherDisplay:10.37,2013-06-20 15:42:00,
2013-06-20 10:47:00,86.3,79.0,30.02,SSE,153,9.2,9.2,79,0.00,CLR,,0.00,WeatherDisplay:10.37,2013-06-20 15:47:00,
2013-06-20 10:52:00,86.0,78.7,30.02,East,87,12.7,12.7,79,0.00,CLR,,0.00,WeatherDisplay:10.37,2013-06-20 15:52:00,
2013-06-20 10:57:00,86.1,78.8,30.02,SSE,159,12.7,12.7,79,0.00,CLR,,0.00,WeatherDisplay:10.37,2013-06-20 15:57:00,
2013-06-20 11:02:00,86.0,78.3,30.02,SE,131,17.3,17.3,78,0.00,CLR,,0.00,WeatherDisplay:10.37,2013-06-20 16:02:00,
2013-06-20 11:07:00,85.9,78.6,30.02,SSE,155,13.8,13.8,79,0.00,CLR,,0.00,WeatherDisplay:10.37,2013-06-20 16:07:00,
2013-06-20 11:12:00,86.1,78.8,30.02,SSE,153,17.3,17.3,79,0.00,CLR,,0.00,WeatherDisplay:10.37,2013-06-20 16:12:00,
2013-06-20 11:17:00,86.1,78.4,30.02,ESE,113,17.3,17.3,78,0.00,CLR,,0.00,WeatherDisplay:10.37,2013-06-20 16:17:00,
2013-06-20 11:22:00,86.2,78.9,30.02,South,171,17.3,17.3,79,0.00,CLR,,0.00,WeatherDisplay:10.37,2013-06-20 16:22:00,
2013-06-20 11:27:00,86.5,78.8,30.02,ESE,123,11.5,11.5,78,0.00,CLR,,0.00,WeatherDisplay:10.37,2013-06-20 16:27:00,
2013-06-20 11:32:00,86.7,79.0,30.02,East,98,13.8,13.8,78,0.00,CLR,,0.00,WeatherDisplay:10.37,2013-06-20 16:32:00,
2013-06-20 11:37:00,86.7,78.6,30.02,ESE,123,12.7,12.7,77,0.00,CLR,,0.00,WeatherDisplay:10.37,2013-06-20 16:37:00,
2013-06-20 11:42:00,86.9,78.8,30.02,SE,144,13.8,13.8,77,0.00,CLR,,0.00,WeatherDisplay:10.37,2013-06-20 16:42:00,
2013-06-20 11:47:00,87.5,79.4,30.02,East,96,10.4,10.4,77,0.00,CLR,,0.00,WeatherDisplay:10.37,2013-06-20 16:47:00,
2013-06-20 11:52:00,87.2,78.3,30.02,SE,138,16.1,16.1,75,0.00,CLR,,0.00,WeatherDisplay:10.37,2013-06-20 16:52:00,
2013-06-20 11:57:00,87.1,78.6,30.02,SE,141,15.0,15.0,76,0.00,CLR,,0.00,WeatherDisplay:10.37,2013-06-20 16:57:00,
2013-06-20 12:02:00,87.0,78.5,30.02,SE,131,12.7,12.7,76,0.00,CLR,,0.00,WeatherDisplay:10.37,2013-06-20 17:02:00,
2013-06-20 12:07:00,87.0,78.5,30.02,SE,143,13.8,13.8,76,0.00,CLR,,0.00,WeatherDisplay:10.37,2013-06-20 17:07:00,
2013-06-20 12:12:00,87.0,78.5,30.02,SSE,149,12.7,12.7,76,0.00,CLR,,0.00,WeatherDisplay:10.37,2013-06-20 17:12:00,
2013-06-20 12:17:00,87.3,79.2,30.02,SSE,151,12.6,12.6,77,0.00,CLR,,0.00,WeatherDisplay:10.37,2013-06-20 17:17:00,
2013-06-20 12:22:00,87.7,78.8,30.02,ESE,114,13.8,13.8,75,0.00,CLR,,0.00,WeatherDisplay:10.37,2013-06-20 17:22:00,
2013-06-20 12:27:00,87.4,78.9,30.02,ESE,112,11.5,11.5,76,0.00,CLR,,0.00,WeatherDisplay:10.37,2013-06-20 17:27:00,
2013-06-20 12:32:00,87.4,78.5,30.02,SE,139,10.4,10.4,75,0.00,CLR,,0.00,WeatherDisplay:10.37,2013-06-20 17:32:00,
2013-06-20 12:37:00,87.4,78.5,30.02,ESE,115,16.1,16.1,75,0.00,CLR,,0.00,WeatherDisplay:10.37,2013-06-20 17:37:00,
2013-06-20 12:42:00,87.5,79.0,30.02,SE,124,10.4,10.4,76,0.00,CLR,,0.00,WeatherDisplay:10.37,2013-06-20 17:42:00,
2013-06-20 12:47:00,88.1,79.6,30.02,SE,130,8.4,8.4,76,0.00,CLR,,0.00,WeatherDisplay:10.37,2013-06-20 17:47:00,
2013-06-20 12:52:00,87.9,79.0,30.02,East,97,10.4,10.4,75,0.00,CLR,,0.00,WeatherDisplay:10.37,2013-06-20 17:52:00,
2013-06-20 12:57:00,87.8,78.5,30.02,SE,139,13.8,13.8,74,0.00,CLR,,0.00,WeatherDisplay:10.37,2013-06-20 17:57:00,
2013-06-20 13:02:00,87.6,78.7,30.02,ESE,118,9.2,9.2,75,0.00,CLR,,0.00,WeatherDisplay:10.37,2013-06-20 18:02:00,
2013-06-20 13:07:00,88.0,79.1,30.02,ESE,118,13.8,13.8,75,0.00,CLR,,0.00,WeatherDisplay:10.37,2013-06-20 18:07:00,
2013-06-20 13:12:00,88.0,79.1,30.02,ESE,105,13.8,13.8,75,0.00,CLR,,0.00,WeatherDisplay:10.37,2013-06-20 18:12:00,
2013-06-20 13:17:00,87.8,79.3,30.02,East,101,16.1,16.1,76,0.00,CLR,,0.00,WeatherDisplay:10.37,2013-06-20 18:17:00,
2013-06-20 13:22:00,87.8,78.9,30.02,ESE,117,15.0,15.0,75,0.00,CLR,,0.00,WeatherDisplay:10.37,2013-06-20 18:22:00,
2013-06-20 13:27:00,88.0,79.1,30.01,SE,142,16.1,16.1,75,0.00,CLR,,0.00,WeatherDisplay:10.37,2013-06-20 18:27:00,
2013-06-20 13:32:00,87.9,79.0,30.01,SE,134,12.7,12.7,75,0.00,CLR,,0.00,WeatherDisplay:10.37,2013-06-20 18:32:00,
2013-06-20 13:37:00,88.4,79.1,30.01,SE,126,12.7,12.7,74,0.00,CLR,,0.00,WeatherDisplay:10.37,2013-06-20 18:37:00,
2013-06-20 13:42:00,88.3,78.5,30.01,SE,136,18.4,18.4,73,0.00,CLR,,0.00,WeatherDisplay:10.37,2013-06-20 18:42:00,
2013-06-20 13:47:00,87.6,78.3,30.01,SE,130,15.0,15.0,74,0.00,CLR,,0.00,WeatherDisplay:10.37,2013-06-20 18:47:00,
2013-06-20 13:52:00,87.8,78.5,30.00,SE,146,16.1,16.1,74,0.00,CLR,,0.00,WeatherDisplay:10.37,2013-06-20 18:52:00,
2013-06-20 13:57:00,87.6,78.3,30.00,SE,142,13.8,13.8,74,0.00,CLR,,0.00,WeatherDisplay:10.37,2013-06-20 18:57:00,
2013-06-20 14:02:00,88.2,78.9,30.00,SE,129,13.8,13.8,74,0.00,CLR,,0.00,WeatherDisplay:10.37,2013-06-20 19:02:00,
2013-06-20 14:07:00,88.6,78.8,30.00,ESE,108,12.7,12.7,73,0.00,CLR,,0.00,WeatherDisplay:10.37,2013-06-20 19:07:00,
2013-06-20 14:12:00,88.5,79.1,30.00,SE,139,17.3,17.3,74,0.00,CLR,,0.00,WeatherDisplay:10.37,2013-06-20 19:12:00,
2013-06-20 14:17:00,88.0,79.5,30.00,SSE,150,6.3,7.2,76,0.00,CLR,,0.00,WeatherDisplay:10.37,2013-06-20 19:17:00,
2013-06-20 14:22:00,88.1,79.2,30.00,ESE,109,11.5,11.5,75,0.00,CLR,,0.00,WeatherDisplay:10.37,2013-06-20 19:22:00,
2013-06-20 14:27:00,87.8,78.9,30.00,SE,133,11.5,11.5,75,0.00,CLR,,0.00,WeatherDisplay:10.37,2013-06-20 19:27:00,
2013-06-20 14:32:00,87.8,79.3,30.00,East,91,16.1,16.1,76,0.00,CLR,,0.00,WeatherDisplay:10.37,2013-06-20 19:32:00,
2013-06-20 14:37:00,88.1,78.8,29.99,ESE,115,16.1,16.1,74,0.00,CLR,,0.00,WeatherDisplay:10.37,2013-06-20 19:37:00,
2013-06-20 14:42:00,87.6,79.1,30.00,SE,126,13.8,13.8,76,0.00,CLR,,0.00,WeatherDisplay:10.37,2013-06-20 19:42:00,
2013-06-20 14:47:00,87.8,79.3,29.99,SSE,150,15.0,15.0,76,0.00,CLR,,0.00,WeatherDisplay:10.37,2013-06-20 19:47:00,
2013-06-20 14:52:00,88.0,79.5,29.99,ESE,115,13.8,13.8,76,0.00,CLR,,0.00,WeatherDisplay:10.37,2013-06-20 19:52:00,
2013-06-20 14:57:00,88.6,79.7,29.99,ESE,117,13.8,13.8,75,0.00,CLR,,0.00,WeatherDisplay:10.37,2013-06-20 19:57:00,
2013-06-20 15:02:00,88.2,79.3,29.99,SE,131,16.1,16.1,75,0.00,CLR,,0.00,WeatherDisplay:10.37,2013-06-20 20:02:00,
2013-06-20 15:07:00,88.3,79.8,29.99,ESE,122,17.3,17.3,76,0.00,CLR,,0.00,WeatherDisplay:10.37,2013-06-20 20:07:00,
2013-06-20 15:12:00,88.3,79.4,29.99,SE,134,18.4,18.4,75,0.00,CLR,,0.00,WeatherDisplay:10.37,2013-06-20 20:12:00,
2013-06-20 15:17:00,88.0,79.1,29.99,ESE,114,15.8,15.8,75,0.00,CLR,,0.00,WeatherDisplay:10.37,2013-06-20 20:17:00,
2013-06-20 15:22:00,87.7,79.2,29.99,ESE,110,17.3,17.3,76,0.00,CLR,,0.00,WeatherDisplay:10.37,2013-06-20 20:22:00,
2013-06-20 15:27:00,88.3,79.8,29.99,SE,143,15.0,15.0,76,0.00,CLR,,0.00,WeatherDisplay:10.37,2013-06-20 20:27:00,
2013-06-20 15:32:00,88.3,79.0,29.99,SSW,193,15.0,15.0,74,0.00,CLR,,0.00,WeatherDisplay:10.37,2013-06-20 20:32:00,
2013-06-20 15:37:00,88.4,79.5,29.98,East,91,16.1,16.1,75,0.00,CLR,,0.00,WeatherDisplay:10.37,2013-06-20 20:37:00,
2013-06-20 15:42:00,88.6,79.7,29.98,East,94,16.1,16.1,75,0.00,CLR,,0.00,WeatherDisplay:10.37,2013-06-20 20:42:00,
2013-06-20 15:47:00,88.0,79.5,29.98,East,86,15.0,15.0,76,0.00,CLR,,0.00,WeatherDisplay:10.37,2013-06-20 20:47:00,
2013-06-20 15:52:00,88.3,79.8,29.98,ESE,117,15.0,15.0,76,0.00,CLR,,0.00,WeatherDisplay:10.37,2013-06-20 20:52:00,
2013-06-20 15:57:00,87.9,79.4,29.98,East,88,15.0,15.0,76,0.00,CLR,,0.00,WeatherDisplay:10.37,2013-06-20 20:57:00,
2013-06-20 16:02:00,87.8,79.7,29.97,SE,131,15.0,15.0,77,0.00,CLR,,0.00,WeatherDisplay:10.37,2013-06-20 21:02:00,
2013-06-20 16:07:00,87.8,79.7,29.97,SE,124,12.7,12.7,77,0.00,CLR,,0.00,WeatherDisplay:10.37,2013-06-20 21:07:00,
2013-06-20 16:12:00,87.7,79.2,29.97,East,87,16.1,16.1,76,0.00,CLR,,0.00,WeatherDisplay:10.37,2013-06-20 21:12:00,
2013-06-20 16:17:00,87.1,79.0,29.97,SE,146,17.3,17.3,77,0.00,CLR,,0.00,WeatherDisplay:10.37,2013-06-20 21:17:00,
2013-06-20 16:22:00,86.8,79.1,29.97,ENE,77,12.7,12.7,78,0.00,CLR,,0.00,WeatherDisplay:10.37,2013-06-20 21:22:00,
2013-06-20 16:27:00,87.0,79.3,29.97,SE,144,13.8,13.8,78,0.00,CLR,,0.00,WeatherDisplay:10.37,2013-06-20 21:27:00,
2013-06-20 16:32:00,86.9,79.6,29.97,East,86,13.8,13.8,79,0.00,CLR,,0.00,WeatherDisplay:10.37,2013-06-20 21:32:00,
2013-06-20 16:37:00,87.1,79.4,29.97,NE,51,12.7,12.7,78,0.00,CLR,,0.00,WeatherDisplay:10.37,2013-06-20 21:37:00,
2013-06-20 16:42:00,86.8,79.1,29.97,ESE,114,15.0,15.0,78,0.00,CLR,,0.00,WeatherDisplay:10.37,2013-06-20 21:42:00,
2013-06-20 16:47:00,86.6,78.9,29.97,SE,129,15.0,15.0,78,0.00,CLR,,0.00,WeatherDisplay:10.37,2013-06-20 21:47:00,
2013-06-20 16:52:00,86.5,79.2,29.97,ESE,103,15.0,15.0,79,0.00,CLR,,0.00,WeatherDisplay:10.37,2013-06-20 21:52:00,
2013-06-20 16:57:00,86.5,79.2,29.97,ESE,115,15.8,15.8,79,0.00,CLR,,0.00,WeatherDisplay:10.37,2013-06-20 21:57:00,
2013-06-20 17:02:00,86.0,78.7,29.97,ESE,105,17.3,17.3,79,0.00,CLR,,0.00,WeatherDisplay:10.37,2013-06-20 22:02:00,
2013-06-20 17:07:00,86.0,79.1,29.97,SE,142,10.4,10.4,80,0.00,CLR,,0.00,WeatherDisplay:10.37,2013-06-20 22:07:00,
2013-06-20 17:12:00,85.8,79.3,29.97,SE,128,20.7,20.7,81,0.00,CLR,,0.00,WeatherDisplay:10.37,2013-06-20 22:12:00,
2013-06-20 17:17:00,85.6,79.1,29.97,SE,127,17.3,17.3,81,0.00,CLR,,0.00,WeatherDisplay:10.37,2013-06-20 22:17:00,
2013-06-20 17:22:00,85.6,79.1,29.97,SE,125,10.4,10.4,81,0.00,CLR,,0.00,WeatherDisplay:10.37,2013-06-20 22:22:00,
2013-06-20 17:27:00,85.9,79.4,29.97,ESE,115,11.6,11.6,81,0.00,CLR,,0.00,WeatherDisplay:10.37,2013-06-20 22:27:00,
2013-06-20 17:32:00,85.9,79.0,29.97,East,87,11.5,11.5,80,0.00,CLR,,0.00,WeatherDisplay:10.37,2013-06-20 22:32:00,
2013-06-20 17:37:00,85.7,78.8,29.97,East,86,13.8,13.8,80,0.00,CLR,,0.00,WeatherDisplay:10.37,2013-06-20 22:37:00,
2013-06-20 17:42:00,85.6,78.7,29.96,East,87,15.0,15.0,80,0.00,CLR,,0.00,WeatherDisplay:10.37,2013-06-20 22:42:00,
2013-06-20 17:47:00,85.4,78.5,29.97,East,98,13.8,13.8,80,0.00,CLR,,0.00,WeatherDisplay:10.37,2013-06-20 22:47:00,
2013-06-20 17:52:00,85.4,78.9,29.96,ESE,115,15.0,15.0,81,0.00,CLR,,0.00,WeatherDisplay:10.37,2013-06-20 22:52:00,
2013-06-20 17:57:00,85.2,78.7,29.96,ESE,113,10.4,10.4,81,0.00,CLR,,0.00,WeatherDisplay:10.37,2013-06-20 22:57:00,
2013-06-20 18:02:00,85.3,79.2,29.96,ENE,78,16.1,16.1,82,0.00,CLR,,0.00,WeatherDisplay:10.37,2013-06-20 23:02:00,
2013-06-20 18:07:00,85.6,79.5,29.96,SE,131,13.8,13.8,82,0.00,CLR,,0.00,WeatherDisplay:10.37,2013-06-20 23:07:00,
2013-06-20 18:12:00,85.5,79.0,29.96,ESE,108,16.1,16.1,81,0.00,CLR,,0.00,WeatherDisplay:10.37,2013-06-20 23:12:00,
2013-06-20 18:17:00,85.2,78.7,29.96,East,98,15.0,15.0,81,0.00,CLR,,0.00,WeatherDisplay:10.37,2013-06-20 23:17:00,
2013-06-20 18:22:00,85.0,78.9,29.96,SE,126,17.3,17.3,82,0.00,CLR,,0.00,WeatherDisplay:10.37,2013-06-20 23:22:00,
2013-06-20 18:27:00,84.9,78.8,29.96,SE,128,13.8,13.8,82,0.00,CLR,,0.00,WeatherDisplay:10.37,2013-06-20 23:27:00,
2013-06-20 18:32:00,84.8,78.7,29.96,SE,125,16.1,16.1,82,0.00,CLR,,0.00,WeatherDisplay:10.37,2013-06-20 23:32:00,
2013-06-20 18:37:00,84.8,78.7,29.96,SE,142,16.1,16.1,82,0.00,CLR,,0.00,WeatherDisplay:10.37,2013-06-20 23:37:00,
2013-06-20 18:42:00,84.8,79.1,29.96,East,100,13.8,13.8,83,0.00,CLR,,0.00,WeatherDisplay:10.37,2013-06-20 23:42:00,
2013-06-20 18:47:00,84.5,78.4,29.96,ESE,119,16.1,16.1,82,0.00,CLR,,0.00,WeatherDisplay:10.37,2013-06-20 23:47:00,
2013-06-20 18:52:00,84.4,79.0,29.96,ESE,114,13.8,13.8,84,0.00,CLR,,0.00,WeatherDisplay:10.37,2013-06-20 23:52:00,
2013-06-20 18:57:00,84.2,78.5,29.96,ESE,108,13.8,13.8,83,0.00,CLR,,0.00,WeatherDisplay:10.37,2013-06-20 23:57:00,
2013-06-20 19:02:00,84.0,78.6,29.96,SE,144,13.8,13.8,84,0.00,CLR,,0.00,WeatherDisplay:10.37,2013-06-21 00:02:00,
2013-06-20 19:07:00,84.0,78.6,29.96,ESE,117,13.8,13.8,84,0.00,CLR,,0.00,WeatherDisplay:10.37,2013-06-21 00:07:00,
2013-06-20 19:12:00,83.8,78.8,29.96,SE,139,13.8,13.8,85,0.00,CLR,,0.00,WeatherDisplay:10.37,2013-06-21 00:12:00,
2013-06-20 19:17:00,83.6,78.6,29.96,SE,124,15.0,15.0,85,0.00,CLR,,0.00,WeatherDisplay:10.37,2013-06-21 00:17:00,
2013-06-20 19:22:00,83.5,78.5,29.96,SE,131,11.5,11.5,85,0.00,CLR,,0.00,WeatherDisplay:10.37,2013-06-21 00:22:00,
2013-06-20 19:27:00,83.5,78.9,29.96,SE,127,17.3,17.3,86,0.00,CLR,,0.00,WeatherDisplay:10.37,2013-06-21 00:27:00,
2013-06-20 19:32:00,83.4,78.8,29.96,ESE,110,11.5,11.5,86,0.00,CLR,,0.00,WeatherDisplay:10.37,2013-06-21 00:32:00,
2013-06-20 19:37:00,83.3,78.7,29.96,ESE,122,12.7,12.7,86,0.00,CLR,,0.00,WeatherDisplay:10.37,2013-06-21 00:37:00,
2013-06-20 19:42:00,83.2,78.6,29.96,SE,124,13.8,13.8,86,0.00,CLR,,0.00,WeatherDisplay:10.37,2013-06-21 00:42:00,
2013-06-20 19:47:00,83.1,78.5,29.97,SE,145,9.4,9.4,86,0.00,CLR,,0.00,WeatherDisplay:10.37,2013-06-21 00:47:00,
2013-06-20 19:52:00,83.1,78.8,29.97,ESE,119,11.5,11.5,87,0.00,CLR,,0.00,WeatherDisplay:10.37,2013-06-21 00:52:00,
2013-06-20 19:57:00,83.0,78.7,29.97,SE,139,12.6,12.6,87,0.00,CLR,,0.00,WeatherDisplay:10.37,2013-06-21 00:57:00,
2013-06-20 20:02:00,82.8,78.5,29.97,NE,34,15.0,15.0,87,0.00,CLR,,0.00,WeatherDisplay:10.37,2013-06-21 01:02:00,
2013-06-20 20:07:00,82.7,78.4,29.97,ESE,103,12.7,12.7,87,0.00,CLR,,0.00,WeatherDisplay:10.37,2013-06-21 01:07:00,
2013-06-20 20:12:00,82.6,78.3,29.96,ESE,122,11.5,11.5,87,0.00,CLR,,0.00,WeatherDisplay:10.37,2013-06-21 01:12:00,
2013-06-20 20:17:00,82.5,78.2,29.97,SE,142,11.5,11.5,87,0.00,CLR,,0.00,WeatherDisplay:10.37,2013-06-21 01:17:00,
2013-06-20 20:22:00,82.4,78.5,29.97,ESE,107,10.4,10.4,88,0.00,CLR,,0.00,WeatherDisplay:10.37,2013-06-21 01:22:00,
2013-06-20 20:27:00,82.3,78.4,29.97,ESE,117,6.9,6.9,88,0.00,CLR,,0.00,WeatherDisplay:10.37,2013-06-21 01:27:00,
2013-06-20 20:32:00,82.2,78.3,29.97,East,86,12.7,12.7,88,0.00,CLR,,0.00,WeatherDisplay:10.37,2013-06-21 01:32:00,
2013-06-20 20:37:00,82.0,78.4,29.97,SE,141,6.9,6.9,89,0.00,CLR,,0.00,WeatherDisplay:10.37,2013-06-21 01:37:00,
2013-06-20 20:42:00,81.9,78.3,29.97,ESE,114,5.8,6.4,89,0.00,CLR,,0.00,WeatherDisplay:10.37,2013-06-21 01:42:00,
2013-06-20 20:47:00,81.9,78.3,29.97,SE,136,11.5,11.5,89,0.00,CLR,,0.00,WeatherDisplay:10.37,2013-06-21 01:47:00,
2013-06-20 20:52:00,81.8,78.2,29.97,East,101,12.7,12.7,89,0.00,CLR,,0.00,WeatherDisplay:10.37,2013-06-21 01:52:00,
2013-06-20 20:57:00,81.7,78.1,29.97,SE,136,10.4,10.4,89,0.00,CLR,,0.00,WeatherDisplay:10.37,2013-06-21 01:57:00,
2013-06-20 21:02:00,81.7,78.1,29.97,SE,129,9.2,9.2,89,0.00,CLR,,0.00,WeatherDisplay:10.37,2013-06-21 02:02:00,
2013-06-20 21:07:00,81.6,78.0,29.97,ESE,122,8.1,8.4,89,0.00,CLR,,0.00,WeatherDisplay:10.37,2013-06-21 02:07:00,
2013-06-20 21:12:00,81.6,78.4,29.97,ESE,122,10.4,10.4,90,0.00,CLR,,0.00,WeatherDisplay:10.37,2013-06-21 02:12:00,
2013-06-20 21:17:00,81.6,78.4,29.97,ESE,106,15.0,15.0,90,0.00,CLR,,0.00,WeatherDisplay:10.37,2013-06-21 02:17:00,
2013-06-20 21:22:00,81.5,78.3,29.97,ESE,117,9.2,9.2,90,0.00,CLR,,0.00,WeatherDisplay:10.37,2013-06-21 02:22:00,
2013-06-20 21:27:00,81.5,78.3,29.97,East,99,9.4,9.4,90,0.00,CLR,,0.00,WeatherDisplay:10.37,2013-06-21 02:27:00,
2013-06-20 21:32:00,81.4,78.2,29.98,ESE,113,5.8,5.8,90,0.00,CLR,,0.00,WeatherDisplay:10.37,2013-06-21 02:32:00,
2013-06-20 21:37:00,81.3,78.1,29.98,ESE,122,10.4,10.4,90,0.00,CLR,,0.00,WeatherDisplay:10.37,2013-06-21 02:37:00,
2013-06-20 21:42:00,81.3,78.4,29.98,ESE,102,10.4,10.4,91,0.00,CLR,,0.00,WeatherDisplay:10.37,2013-06-21 02:42:00,
2013-06-20 21:47:00,81.2,78.3,29.97,ESE,120,6.9,6.9,91,0.00,CLR,,0.00,WeatherDisplay:10.37,2013-06-21 02:47:00,
2013-06-20 21:52:00,81.2,78.3,29.97,ESE,118,12.7,12.7,91,0.00,CLR,,0.00,WeatherDisplay:10.37,2013-06-21 02:52:00,
2013-06-20 21:57:00,81.1,78.2,29.98,SE,144,5.8,5.8,91,0.00,CLR,,0.00,WeatherDisplay:10.37,2013-06-21 02:57:00,
2013-06-20 22:02:00,81.1,78.2,29.98,SE,141,10.4,10.4,91,0.00,CLR,,0.00,WeatherDisplay:10.37,2013-06-21 03:02:00,
2013-06-20 22:07:00,81.1,78.2,29.98,SE,130,8.1,8.1,91,0.00,CLR,,0.00,WeatherDisplay:10.37,2013-06-21 03:07:00,
2013-06-20 22:12:00,81.1,78.2,29.99,SE,135,6.3,6.3,91,0.00,CLR,,0.00,WeatherDisplay:10.37,2013-06-21 03:12:00,
2013-06-20 22:17:00,81.1,78.2,29.99,East,90,12.7,12.7,91,0.00,CLR,,0.00,WeatherDisplay:10.37,2013-06-21 03:17:00,
2013-06-20 22:22:00,81.1,78.2,29.99,SSE,157,10.4,10.4,91,0.00,CLR,,0.00,WeatherDisplay:10.37,2013-06-21 03:22:00,
2013-06-20 22:27:00,81.1,78.2,29.99,SE,126,9.2,9.2,91,0.00,CLR,,0.00,WeatherDisplay:10.37,2013-06-21 03:27:00,
2013-06-20 22:32:00,81.1,78.2,29.99,SE,124,9.2,9.2,91,0.00,CLR,,0.00,WeatherDisplay:10.37,2013-06-21 03:32:00,
2013-06-20 22:37:00,81.1,78.2,29.99,East,79,10.4,10.4,91,0.00,CLR,,0.00,WeatherDisplay:10.37,2013-06-21 03:37:00,
2013-06-20 22:42:00,81.1,78.2,29.99,ESE,122,9.2,9.2,91,0.00,CLR,,0.00,WeatherDisplay:10.37,2013-06-21 03:42:00,
2013-06-20 22:47:00,81.0,78.1,29.99,East,80,6.9,6.9,91,0.00,CLR,,0.00,WeatherDisplay:10.37,2013-06-21 03:47:00,
2013-06-20 22:52:00,81.0,78.1,30.00,SE,128,11.5,11.5,91,0.00,CLR,,0.00,WeatherDisplay:10.37,2013-06-21 03:52:00,
2013-06-20 22:57:00,81.0,78.1,30.00,SSE,151,9.2,9.2,91,0.00,CLR,,0.00,WeatherDisplay:10.37,2013-06-21 03:57:00,
2013-06-20 23:01:00,81.0,78.1,30.00,SE,124,8.1,8.1,91,0.00,CLR,,0.00,WeatherDisplay:10.37,2013-06-21 04:01:00,
2013-06-20 23:02:00,81.0,78.1,30.00,East,101,6.9,6.9,91,0.00,CLR,,0.00,WeatherDisplay:10.37,2013-06-21 04:02:00,
2013-06-20 23:07:00,81.0,78.1,30.00,SE,136,10.4,10.4,91,0.00,CLR,,0.00,WeatherDisplay:10.37,2013-06-21 04:07:00,
2013-06-20 23:12:00,80.9,78.0,30.00,SE,134,12.7,12.7,91,0.00,CLR,,0.00,WeatherDisplay:10.37,2013-06-21 04:12:00,
2013-06-20 23:17:00,80.9,78.0,30.00,ESE,106,11.5,11.5,91,0.00,CLR,,0.00,WeatherDisplay:10.37,2013-06-21 04:17:00,
2013-06-20 23:22:00,80.8,77.9,30.00,SE,136,11.5,11.5,91,0.00,CLR,,0.00,WeatherDisplay:10.37,2013-06-21 04:22:00,
2013-06-20 23:27:00,80.8,77.9,30.00,SE,134,10.4,10.4,91,0.00,CLR,,0.00,WeatherDisplay:10.37,2013-06-21 04:27:00,
2013-06-20 23:32:00,80.8,77.9,30.00,ESE,115,6.9,6.9,91,0.00,CLR,,0.00,WeatherDisplay:10.37,2013-06-21 04:32:00,
2013-06-20 23:37:00,80.9,78.0,30.00,ESE,105,11.5,11.5,91,0.00,CLR,,0.00,WeatherDisplay:10.37,2013-06-21 04:37:00,
2013-06-20 23:42:00,80.8,77.6,30.00,ESE,119,8.1,8.1,90,0.00,CLR,,0.00,WeatherDisplay:10.37,2013-06-21 04:42:00,
2013-06-20 23:47:00,80.9,77.7,30.00,ESE,109,9.2,9.2,90,0.00,CLR,,0.00,WeatherDisplay:10.37,2013-06-21 04:47:00,
2013-06-20 23:52:00,80.8,77.6,30.00,East,92,6.9,6.9,90,0.00,CLR,,0.00,WeatherDisplay:10.37,2013-06-21 04:52:00,
2013-06-20 23:57:00,80.8,77.6,30.00,SE,136,8.1,8.1,90,0.00,CLR,,0.00,WeatherDisplay:10.37,2013-06-21 04:57:00,